PWSweather.com
Personal Weather Stations
Station Observations
PENICUIKWS
PenicuikGB

PenicuikGB

Lat: 55.830932, Lon: -3.224533000000065

Elevation: 166

Station Type: Fine Offset

http://weather.penicuik.org

Latest ConditionsUpdated 6:00:02 AM GMT Monday, Aug 21, 2017
Currently Today's Max Today's Min Today's Average
Temperature 41.7°F5.4°C 46.2°F7.9°C 39.7°F4.3°C 42.3°F5.7°C
Dew Point 41.5°F5.3°C 45.4°F7.4°C 39.5°F4.2°C 41.9°F5.5°C
Winds 1.5 mph SSE2.4 kmh SSE 1.5 mph SSE2.4 kmh SSE - 0.3 mph 0.5 kmh
Wind Gusts 2.2 mph3.5 kmh 2.2 mph3.5 kmh - -
Humidity 99% 99% 97% 99%
Pressure 30.18 in1022.0 mb 30.20 in1022.7 mb 30.17 in1021.7 mb -
Hour Temp Dew Point Humidity Winds Wind Gusts Pressure Precip Precip Rate Daily Precip Total
06:00 AM 41.7°F5.4°C 41.5°F5.3°C 99% 1.5 mph SSE2.4 kmh SSE 2.2 mph3.5 kmh 30.18 in1022.0 mb 0.00 in0.0 mm 0.00 in0.0 mm 0.00 in0.0 mm
05:45 AM 41.2°F5.1°C 40.9°F4.9°C 99% 0.2 mph SSE0.3 kmh SSE 0.7 mph1.1 kmh 30.18 in1022.0 mb 0.00 in0.0 mm 0.00 in0.0 mm 0.00 in0.0 mm
05:30 AM 40.3°F4.6°C 40.0°F4.4°C 99% 0.1 mph SW0.2 kmh SW 0.7 mph1.1 kmh 30.18 in1022.0 mb 0.00 in0.0 mm 0.00 in0.0 mm 0.00 in0.0 mm
05:15 AM 39.7°F4.3°C 39.5°F4.2°C 99% Calm Calm -- 30.18 in1022.0 mb 0.00 in0.0 mm 0.00 in0.0 mm 0.00 in0.0 mm
05:00 AM 39.9°F4.4°C 39.7°F4.3°C 99% 0.5 mph SW0.8 kmh SW 0.7 mph1.1 kmh 30.17 in1021.7 mb 0.00 in0.0 mm 0.00 in0.0 mm 0.00 in0.0 mm
04:45 AM 40.1°F4.5°C 39.8°F4.3°C 99% 0.3 mph W0.5 kmh W 0.7 mph1.1 kmh 30.17 in1021.7 mb 0.00 in0.0 mm 0.00 in0.0 mm 0.00 in0.0 mm
04:30 AM 40.6°F4.8°C 40.4°F4.7°C 99% 0.2 mph SW0.3 kmh SW 0.7 mph1.1 kmh 30.17 in1021.7 mb 0.00 in0.0 mm 0.00 in0.0 mm 0.00 in0.0 mm
04:15 AM 41.0°F5.0°C 40.7°F4.8°C 99% 0.3 mph S0.5 kmh S 0.7 mph1.1 kmh 30.18 in1022.0 mb 0.00 in0.0 mm 0.00 in0.0 mm 0.00 in0.0 mm
04:00 AM 41.2°F5.1°C 40.9°F4.9°C 99% 0.5 mph SW0.8 kmh SW 0.7 mph1.1 kmh 30.18 in1022.0 mb 0.00 in0.0 mm 0.00 in0.0 mm 0.00 in0.0 mm
03:45 AM 41.5°F5.3°C 41.3°F5.2°C 99% 0.3 mph SSW0.5 kmh SSW 0.7 mph1.1 kmh 30.18 in1022.0 mb 0.00 in0.0 mm 0.00 in0.0 mm 0.00 in0.0 mm
03:30 AM 41.7°F5.4°C 41.5°F5.3°C 99% 0.1 mph SW0.2 kmh SW 0.7 mph1.1 kmh 30.18 in1022.0 mb 0.00 in0.0 mm 0.00 in0.0 mm 0.00 in0.0 mm
03:15 AM 41.7°F5.4°C 41.5°F5.3°C 99% Calm Calm -- 30.18 in1022.0 mb 0.00 in0.0 mm 0.00 in0.0 mm 0.00 in0.0 mm
03:00 AM 41.9°F5.5°C 41.6°F5.3°C 99% Calm Calm -- 30.17 in1021.7 mb 0.00 in0.0 mm 0.00 in0.0 mm 0.00 in0.0 mm
02:45 AM 41.9°F5.5°C 41.6°F5.3°C 99% 0.2 mph SW0.3 kmh SW 0.7 mph1.1 kmh 30.19 in1022.4 mb 0.00 in0.0 mm 0.00 in0.0 mm 0.00 in0.0 mm
02:30 AM 42.4°F5.8°C 42.2°F5.7°C 99% 0.4 mph S0.6 kmh S 0.7 mph1.1 kmh 30.19 in1022.4 mb 0.00 in0.0 mm 0.00 in0.0 mm 0.00 in0.0 mm
02:15 AM 42.4°F5.8°C 42.2°F5.7°C 99% 0.7 mph SW1.1 kmh SW 1.6 mph2.6 kmh 30.20 in1022.7 mb 0.00 in0.0 mm 0.00 in0.0 mm 0.00 in0.0 mm
02:00 AM 42.8°F6.0°C 42.3°F5.7°C 98% 0.1 mph S0.2 kmh S 0.7 mph1.1 kmh 30.19 in1022.4 mb 0.00 in0.0 mm 0.00 in0.0 mm 0.00 in0.0 mm
01:45 AM 42.8°F6.0°C 42.3°F5.7°C 98% 0.4 mph S0.6 kmh S 1.6 mph2.6 kmh 30.19 in1022.4 mb 0.00 in0.0 mm 0.00 in0.0 mm 0.00 in0.0 mm
01:30 AM 43.5°F6.4°C 43.0°F6.1°C 98% 0.3 mph WSW0.5 kmh WSW 1.6 mph2.6 kmh 30.19 in1022.4 mb 0.00 in0.0 mm 0.00 in0.0 mm 0.00 in0.0 mm
01:15 AM 43.9°F6.6°C 43.4°F6.3°C 98% 0.5 mph SW0.8 kmh SW 1.6 mph2.6 kmh 30.18 in1022.0 mb 0.00 in0.0 mm 0.00 in0.0 mm 0.00 in0.0 mm
01:00 AM 43.9°F6.6°C 43.4°F6.3°C 98% 0.1 mph S0.2 kmh S 0.7 mph1.1 kmh 30.19 in1022.4 mb 0.00 in0.0 mm 0.00 in0.0 mm 0.00 in0.0 mm
12:45 AM 44.4°F6.9°C 43.9°F6.6°C 98% 0.1 mph SE0.2 kmh SE 0.7 mph1.1 kmh 30.19 in1022.4 mb 0.00 in0.0 mm 0.00 in0.0 mm 0.00 in0.0 mm
12:30 AM 45.0°F7.2°C 44.2°F6.8°C 97% 0.1 mph S0.2 kmh S 0.7 mph1.1 kmh 30.19 in1022.4 mb 0.00 in0.0 mm 0.00 in0.0 mm 0.00 in0.0 mm
12:15 AM 45.7°F7.6°C 44.9°F7.2°C 97% 0.1 mph N0.2 kmh N 0.7 mph1.1 kmh 30.20 in1022.7 mb 0.00 in0.0 mm 0.00 in0.0 mm 0.00 in0.0 mm
12:00 AM 46.2°F7.9°C 45.4°F7.4°C 97% 0.2 mph SW0.3 kmh SW 0.7 mph1.1 kmh 30.19 in1022.4 mb 0.00 in0.0 mm 0.00 in0.0 mm 0.00 in0.0 mm